Project,Study,Ord_Occ,Event_Num,Cast_ID,Date_Time_UTC,Date_Time_PST,Lat_Dec,Lon_Dec,Sta_ID,Line,Sta,Depth,Pressure,PrQ,Temp1,Temp1Q,Temp2,Temp2Q,TempAve,Salt1,Salt1Q,Salt1_Corr,Salt2,Salt2Q,Salt2_Corr,SaltAve_Corr,Ox1,Ox1Q,Ox1_CruiseCorr,Ox1_StaCorr,Ox2,Ox2Q,Ox2_CruiseCorr,Ox2_StaCorr,OxAve_StaCorr,Ox1uM,Ox1uM_CruiseCorr,Ox1uM_StaCorr,Ox2uM,Ox2uM_CruiseCorr,Ox2uM_StaCorr,OxAveuM_StaCorr,FluorV,FluorQ,EstChl_CruiseCorr,EstChl_StaCorr,ISUSV,ISUSQ,EstNO3_CruiseCorr,EstNO3_StaCorr,SigThetaTS1,SigThetaTS1Q,SigThetaTS2,SigThetaTS2Q,BAT,XMiss,TransQ,pH,pHQ,SPAR,SPARQ,PAR,PARQ,PoT1,PoT2,DynHt,SVA,OxSat1,OxSat2,BTL_Depth,BTL_Temp,SaltB,OxB,OxBuM,Chl-a,Phaeo,NO3,NO2,NH4,PO4,SIL
CalCOFI,2101RL,034,,2101_034d,23-Jan-2021 12:32:53,23-Jan-2021 04:32:53,33.88730,-118.48880,086.7 033.0,086.7,033.0,2.000,2.015,,14.9174,,14.9204,,14.9189,33.5626,,33.5684,33.5590,,33.5610,33.5647,5.6004,,5.8613,5.8932,5.5052,,5.8451,5.8696,5.8814,244.041,255.7223,256.9423,239.893,271.8298,255.9144,256.4284,0.1506,,0.9858,1.6464, ,, , ,24.8819,,24.8784,,0.9081,79.6911,,,,3.4010E+00,,1.0000E-12,,14.9170,14.9200,-0.0060,306.072,97.355,95.704,2,,33.5478,5.947,259.28,1.414,0.274,,,,,
CalCOFI,2101RL,034,,2101_034d,23-Jan-2021 12:33:34,23-Jan-2021 04:33:34,33.88734,-118.48880,086.7 033.0,086.7,033.0,3.000,3.021,,14.9256,,14.9228,,14.9242,33.5627,,33.5685,33.5596,,33.5616,33.5651,5.6591,,5.9227,5.9488,5.5374,,5.8793,5.9005,5.9247,246.601,258.4021,259.3678,241.298,274.6766,257.2618,258.3148,0.1645,,1.0997,1.8457, ,, , ,24.8802,,24.8784,,0.9116,79.6213,,,,1.3634E+00,,1.0000E-12,,14.9252,14.9224,0.0090,306.266,98.393,96.269,,,,,,,,,,,,
CalCOFI,2101RL,034,,2101_034d,23-Jan-2021 12:33:39,23-Jan-2021 04:33:39,33.88734,-118.48880,086.7 033.0,086.7,033.0,4.000,4.029,,14.9249,,14.9258,,14.9254,33.5626,,33.5684,33.5593,,33.5613,33.5649,5.6434,,5.9063,5.9339,5.5549,,5.8979,5.9173,5.9256,245.916,257.6851,258.7188,242.059,273.9148,257.9916,258.3552,0.1569,,1.0375,1.7367, ,, , ,24.8803,,24.8776,,0.9102,79.6487,,,,1.8473E+00,,1.0000E-12,,14.9243,14.9252,0.0124,306.285,98.118,96.578,,,,,,,,,,,,
CalCOFI,2101RL,034,,2101_034d,23-Jan-2021 12:33:41,23-Jan-2021 04:33:41,33.88734,-118.48880,086.7 033.0,086.7,033.0,5.000,5.036,,14.9264,,14.9272,,14.9268,33.5625,,33.5683,33.5594,,33.5614,33.5649,5.6459,,5.9089,5.9363,5.5755,,5.9197,5.9370,5.9367,246.025,257.7992,258.8221,242.958,274.0361,258.8538,258.8380,0.1572,,1.0399,1.7410, ,, , ,24.8800,,24.8774,,0.9108,79.6357,,,,1.8474E+00,,1.0000E-12,,14.9256,14.9264,0.0155,306.351,98.164,96.940,,,,,,,,,,,,
CalCOFI,2101RL,034,,2101_034d,23-Jan-2021 12:33:42,23-Jan-2021 04:33:42,33.88734,-118.48880,086.7 033.0,086.7,033.0,6.000,6.043,,14.9231,,14.9232,,14.9232,33.5627,,33.5685,33.5596,,33.5616,33.5651,5.6536,,5.9170,5.9436,5.5821,,5.9267,5.9434,5.9435,246.360,258.1498,259.1395,243.243,274.4086,259.1271,259.1333,0.1556,,1.0268,1.7181, ,, , ,24.8809,,24.8784,,0.9111,79.6305,,,,1.8474E+00,,1.0000E-12,,14.9222,14.9223,0.0186,306.294,98.292,97.046,,,,,,,,,,,,
CalCOFI,2101RL,034,,2101_034d,23-Jan-2021 12:33:44,23-Jan-2021 04:33:44,33.88736,-118.48880,086.7 033.0,086.7,033.0,7.000,7.050,,14.9238,,14.9275,,14.9257,33.5630,,33.5688,33.5595,,33.5615,33.5652,5.6237,,5.8857,5.9153,5.5838,,5.9286,5.9450,5.9302,245.058,256.7869,257.9058,243.319,272.9607,259.2000,258.5529,0.1563,,1.0325,1.7281, ,, , ,24.8809,,24.8774,,0.9114,79.6253,,,,1.8474E+00,,1.0000E-12,,14.9228,14.9264,0.0216,306.320,97.774,97.085,,,,,,,,,,,,
CalCOFI,2101RL,034,,2101_034d,23-Jan-2021 12:33:45,23-Jan-2021 04:33:45,33.88736,-118.48880,086.7 033.0,086.7,033.0,8.000,8.058,,14.9261,,14.9257,,14.9259,33.5626,,33.5684,33.5597,,33.5617,33.5651,5.6300,,5.8923,5.9212,5.5910,,5.9362,5.9519,5.9366,245.331,257.0727,258.1645,243.634,273.2643,259.5020,258.8333,0.1535,,1.0096,1.6880, ,, , ,24.8802,,24.8780,,0.9123,79.6073,,,,1.8474E+00,,1.0000E-12,,14.9249,14.9245,0.0247,306.419,97.887,97.207,,,,,,,,,,,,
CalCOFI,2101RL,034,,2101_034d,23-Jan-2021 12:33:46,23-Jan-2021 04:33:46,33.88736,-118.48879,086.7 033.0,086.7,033.0,9.000,9.065,,14.9239,,14.9231,,14.9235,33.5628,,33.5686,33.5597,,33.5617,33.5652,5.6413,,5.9041,5.9320,5.5883,,5.9333,5.9493,5.9407,245.823,257.5877,258.6306,243.515,273.8114,259.3879,259.0093,0.1522,,0.9989,1.6693, ,, , ,24.8808,,24.8786,,0.9093,79.6668,,,,1.8474E+00,,1.0000E-12,,14.9225,14.9218,0.0278,306.389,98.079,97.154,,,,,,,,,,,,
CalCOFI,2101RL,034,,2101_034d,23-Jan-2021 12:33:48,23-Jan-2021 04:33:48,33.88736,-118.48878,086.7 033.0,086.7,033.0,10.000,10.072,,14.9257,,14.9264,,14.9261,33.5626,,33.5684,33.5593,,33.5613,33.5649,5.6329,,5.8953,5.9240,5.5672,,5.9109,5.9291,5.9266,245.459,257.2067,258.2858,242.598,273.4067,258.5085,258.3972,0.1514,,0.9924,1.6578, ,, , ,24.8804,,24.8777,,0.9132,79.5890,,,,1.8474E+00,,1.0000E-12,,14.9242,14.9249,0.0309,306.464,97.937,96.795,10,,33.5473,5.907,257.56,1.843,0.024,,,,,
CalCOFI,2101RL,034,,2101_034d,23-Jan-2021 12:33:49,23-Jan-2021 04:33:49,33.88736,-118.48878,086.7 033.0,086.7,033.0,11.000,11.079,,14.9274,,14.9277,,14.9276,33.5626,,33.5684,33.5437,,33.5457,33.5571,5.6171,,5.8788,5.9090,5.5674,,5.9111,5.9293,5.9192,244.772,256.4875,257.6349,242.607,272.6427,258.5171,258.0760,0.1510,,0.9891,1.6521, ,, , ,24.8800,,24.8654,,0.9107,79.6376,,,,1.8474E+00,,1.0000E-12,,14.9258,14.9260,0.0340,306.531,97.666,96.790,,,,,,,,,,,,
CalCOFI,2101RL,034,,2101_034d,23-Jan-2021 12:33:51,23-Jan-2021 04:33:51,33.88736,-118.48878,086.7 033.0,086.7,033.0,12.000,12.086,,14.9266,,14.9270,,14.9268,33.5629,,33.5687,33.5590,,33.5610,33.5649,5.6239,,5.8859,5.9155,5.5666,,5.9103,5.9285,5.9220,245.064,256.7932,257.9115,242.569,272.9674,258.4807,258.1961,0.1495,,0.9768,1.6306, ,, , ,24.8804,,24.8773,,0.9102,79.6487,,,,1.8474E+00,,1.0000E-12,,14.9248,14.9253,0.0371,306.521,97.782,96.784,,,,,,,,,,,,
CalCOFI,2101RL,034,,2101_034d,23-Jan-2021 12:33:53,23-Jan-2021 04:33:53,33.88736,-118.48878,086.7 033.0,086.7,033.0,13.000,13.094,,14.9268,,14.9275,,14.9272,33.5627,,33.5685,33.5595,,33.5615,33.5650,5.6322,,5.8946,5.9233,5.5705,,5.9144,5.9322,5.9278,245.427,257.1732,258.2555,242.737,273.3711,258.6418,258.4487,0.1508,,0.9875,1.6492, ,, , ,24.8803,,24.8777,,0.9069,79.7132,,,,1.8474E+00,,1.0000E-12,,14.9249,14.9255,0.0402,306.561,97.927,96.853,,,,,,,,,,,,
CalCOFI,2101RL,034,,2101_034d,23-Jan-2021 12:33:55,23-Jan-2021 04:33:55,33.88736,-118.48878,086.7 033.0,086.7,033.0,14.000,14.101,,14.9285,,14.9291,,14.9288,33.5627,,33.5685,33.5594,,33.5614,33.5650,5.6281,,5.8903,5.9194,5.5771,,5.9214,5.9386,5.9290,245.250,256.9879,258.0877,243.025,273.1742,258.9180,258.5029,0.1508,,0.9875,1.6492, ,, , ,24.8800,,24.8773,,0.9090,79.6722,,,,1.8474E+00,,1.0000E-12,,14.9264,14.9270,0.0432,306.625,97.859,96.970,,,,,,,,,,,,
CalCOFI,2101RL,034,,2101_034d,23-Jan-2021 12:33:57,23-Jan-2021 04:33:57,33.88738,-118.48878,086.7 033.0,086.7,033.0,15.000,15.108,,14.9293,,14.9299,,14.9296,33.5627,,33.5685,33.5594,,33.5614,33.5650,5.6283,,5.8905,5.9196,5.5818,,5.9264,5.9431,5.9314,245.257,256.9952,258.0944,243.234,273.1820,259.1184,258.6064,0.1509,,0.9883,1.6507, ,, , ,24.8798,,24.8772,,0.9097,79.6586,,,,1.8474E+00,,1.0000E-12,,14.9271,14.9277,0.0463,306.672,97.864,97.055,,,,,,,,,,,,
CalCOFI,2101RL,034,,2101_034d,23-Jan-2021 12:33:59,23-Jan-2021 04:33:59,33.88738,-118.48878,086.7 033.0,086.7,033.0,16.000,16.115,,14.9286,,14.9287,,14.9287,33.5627,,33.5685,33.5596,,33.5616,33.5651,5.6193,,5.8811,5.9111,5.5751,,5.9193,5.9367,5.9239,244.866,256.5859,257.7239,242.939,272.7472,258.8355,258.2797,0.1512,,0.9907,1.6550, ,, , ,24.8800,,24.8775,,0.9087,79.6782,,,,1.8474E+00,,1.0000E-12,,14.9262,14.9263,0.0494,306.682,97.706,96.936,,,,,,,,,,,,
CalCOFI,2101RL,034,,2101_034d,23-Jan-2021 12:34:00,23-Jan-2021 04:34:00,33.88738,-118.48876,086.7 033.0,086.7,033.0,17.000,17.123,,14.9268,,14.9271,,14.9270,33.5626,,33.5684,33.5593,,33.5613,33.5649,5.6245,,5.8865,5.9160,5.5839,,5.9287,5.9451,5.9306,245.093,256.8236,257.9390,243.325,272.9997,259.2057,258.5724,0.1515,,0.9932,1.6593, ,, , ,24.8803,,24.8777,,0.9105,79.6433,,,,1.8474E+00,,1.0000E-12,,14.9243,14.9246,0.0525,306.685,97.793,97.086,,,,,,,,,,,,
CalCOFI,2101RL,034,,2101_034d,23-Jan-2021 12:34:02,23-Jan-2021 04:34:02,33.88739,-118.48875,086.7 033.0,086.7,033.0,18.000,18.130,,14.9258,,14.9264,,14.9261,33.5617,,33.5675,33.5587,,33.5607,33.5641,5.6348,,5.8973,5.9258,5.5904,,5.9356,5.9513,5.9386,245.540,257.2915,258.3625,243.605,273.4967,259.4742,258.9184,0.1518,,0.9957,1.6636, ,, , ,24.8799,,24.8774,,0.9095,79.6633,,,,1.8474E+00,,1.0000E-12,,14.9231,14.9237,0.0556,306.751,97.969,97.196,,,,,,,,,,,,
CalCOFI,2101RL,034,,2101_034d,23-Jan-2021 12:34:05,23-Jan-2021 04:34:05,33.88740,-118.48874,086.7 033.0,086.7,033.0,19.000,19.137,,14.9270,,14.9276,,14.9273,33.5617,,33.5675,33.5586,,33.5606,33.5641,5.6348,,5.8973,5.9258,5.5688,,5.9126,5.9306,5.9282,245.540,257.2915,258.3625,242.664,273.4967,258.5718,258.4672,0.1509,,0.9883,1.6507, ,, , ,24.8797,,24.8772,,0.9142,79.5693,,,,1.8474E+00,,1.0000E-12,,14.9241,14.9248,0.0587,306.802,97.971,96.823,,,,,,,,,,,,
CalCOFI,2101RL,034,,2101_034d,23-Jan-2021 12:34:06,23-Jan-2021 04:34:06,33.88740,-118.48874,086.7 033.0,086.7,033.0,20.000,20.145,,14.9258,,14.9279,,14.9269,33.5615,,33.5673,33.5589,,33.5609,33.5641,5.6179,,5.8796,5.9098,5.5633,,5.9068,5.9253,5.9176,244.806,256.5231,257.6671,242.427,272.6805,258.3445,258.0058,0.1514,,0.9924,1.6578, ,, , ,24.8798,,24.8773,,0.9120,79.6115,,,,1.8474E+00,,1.0000E-12,,14.9228,14.9249,0.0618,306.821,97.676,96.729,20,,33.5453,5.874,256.10,1.703,0.223,,,,,
CalCOFI,2101RL,034,,2101_034d,23-Jan-2021 12:34:08,23-Jan-2021 04:34:08,33.88740,-118.48874,086.7 033.0,086.7,033.0,21.000,21.152,,14.9228,,14.9225,,14.9227,33.5610,,33.5668,33.5574,,33.5594,33.5631,5.5914,,5.8519,5.8847,5.5555,,5.8985,5.9179,5.9013,243.651,255.3141,256.5727,242.085,271.3961,258.0165,257.2946,0.1537,,1.0112,1.6908, ,, , ,24.8800,,24.8774,,0.9097,79.6586,,,,1.8474E+00,,1.0000E-12,,14.9197,14.9193,0.0649,306.831,97.209,96.581,,,,,,,,,,,,
CalCOFI,2101RL,034,,2101_034d,23-Jan-2021 12:34:10,23-Jan-2021 04:34:10,33.88740,-118.48872,086.7 033.0,086.7,033.0,22.000,22.159,,14.9133,,14.9145,,14.9139,33.5587,,33.5645,33.5556,,33.5576,33.5611,5.5948,,5.8554,5.8879,5.5479,,5.8904,5.9106,5.8993,243.797,255.4669,256.7111,241.755,271.5585,257.7000,257.2056,0.1519,,0.9965,1.6650, ,, , ,24.8804,,24.8778,,0.9113,79.6259,,,,1.8474E+00,,1.0000E-12,,14.9101,14.9112,0.0680,306.828,97.248,96.433,,,,,,,,,,,,
CalCOFI,2101RL,034,,2101_034d,23-Jan-2021 12:34:12,23-Jan-2021 04:34:12,33.88740,-118.48872,086.7 033.0,086.7,033.0,23.000,23.166,,14.9037,,14.9074,,14.9056,33.5565,,33.5623,33.5544,,33.5564,33.5594,5.6036,,5.8646,5.8962,5.5376,,5.8795,5.9007,5.8985,244.180,255.8678,257.0739,241.304,271.9844,257.2675,257.1707,0.1517,,0.9948,1.6622, ,, , ,24.8809,,24.8784,,0.9090,79.6731,,,,1.8474E+00,,1.0000E-12,,14.9003,14.9040,0.0711,306.813,97.380,96.239,,,,,,,,,,,,
CalCOFI,2101RL,034,,2101_034d,23-Jan-2021 12:34:13,23-Jan-2021 04:34:13,33.88740,-118.48872,086.7 033.0,086.7,033.0,24.000,24.174,,14.8990,,14.9000,,14.8995,33.5557,,33.5615,33.5530,,33.5550,33.5583,5.6121,,5.8735,5.9043,5.5382,,5.8801,5.9013,5.9028,244.553,256.2583,257.4274,241.332,272.3992,257.2944,257.3609,0.1515,,0.9932,1.6593, ,, , ,24.8813,,24.8789,,0.9076,79.6999,,,,1.8474E+00,,1.0000E-12,,14.8954,14.8965,0.0741,306.802,97.520,96.235,,,,,,,,,,,,
CalCOFI,2101RL,034,,2101_034d,23-Jan-2021 12:34:16,23-Jan-2021 04:34:16,33.88740,-118.48871,086.7 033.0,086.7,033.0,25.000,25.181,,14.9086,,14.9083,,14.9085,33.5580,,33.5638,33.5545,,33.5565,33.5602,5.6203,,5.8821,5.9121,5.5344,,5.8761,5.8976,5.9049,244.911,256.6330,257.7665,241.167,272.7973,257.1361,257.4513,0.1560,,1.0301,1.7238, ,, , ,24.8810,,24.8783,,0.9078,79.6964,,,,1.8474E+00,,1.0000E-12,,14.9048,14.9046,0.0772,306.862,97.682,96.186,,,,,,,,,,,,
CalCOFI,2101RL,034,,2101_034d,23-Jan-2021 12:34:17,23-Jan-2021 04:34:17,33.88740,-118.48870,086.7 033.0,086.7,033.0,26.000,26.188,,14.9192,,14.9204,,14.9198,33.5602,,33.5660,33.5573,,33.5593,33.5627,5.5929,,5.8534,5.8861,5.5258,,5.8670,5.8894,5.8878,243.715,255.3811,256.6334,240.793,271.4673,256.7775,256.7055,0.1501,,0.9817,1.6392, ,, , ,24.8804,,24.8779,,0.9081,79.6907,,,,1.8474E+00,,1.0000E-12,,14.9153,14.9166,0.0803,306.945,97.227,96.062,,,,,,,,,,,,
CalCOFI,2101RL,034,,2101_034d,23-Jan-2021 12:34:19,23-Jan-2021 04:34:19,33.88740,-118.48870,086.7 033.0,086.7,033.0,27.000,27.196,,14.9049,,14.9071,,14.9060,33.5571,,33.5629,33.5544,,33.5564,33.5597,5.5771,,5.8369,5.8711,5.5086,,5.8487,5.8729,5.8720,243.026,254.6598,255.9806,240.043,270.7011,256.0582,256.0194,0.1522,,0.9989,1.6693, ,, , ,24.8812,,24.8786,,0.9090,79.6714,,,,1.8474E+00,,1.0000E-12,,14.9009,14.9031,0.0834,306.904,96.923,95.736,,,,,,,,,,,,
CalCOFI,2101RL,034,,2101_034d,23-Jan-2021 12:34:21,23-Jan-2021 04:34:21,33.88740,-118.48870,086.7 033.0,086.7,033.0,28.000,28.203,,14.8846,,14.8883,,14.8865,33.5532,,33.5590,33.5505,,33.5525,33.5558,5.5348,,5.7926,5.8310,5.4766,,5.8147,5.8422,5.8366,241.183,252.7306,254.2343,238.646,268.6517,254.7185,254.4764,0.1515,,0.9932,1.6593, ,, , ,24.8826,,24.8796,,0.9079,79.6946,,,,1.8474E+00,,1.0000E-12,,14.8804,14.8842,0.0865,306.799,96.147,95.141,,,,,,,,,,,,
CalCOFI,2101RL,034,,2101_034d,23-Jan-2021 12:34:23,23-Jan-2021 04:34:23,33.88739,-118.48870,086.7 033.0,086.7,033.0,29.000,29.210,,14.8663,,14.8642,,14.8653,33.5502,,33.5560,33.5465,,33.5485,33.5523,5.5143,,5.7712,5.8116,5.4497,,5.7861,5.8164,5.8140,240.288,251.7937,253.3864,237.474,267.6564,253.5945,253.4905,0.1485,,0.9686,1.6163, ,, , ,24.8842,,24.8818,,0.9047,79.7578,,,,1.8474E+00,,1.0000E-12,,14.8620,14.8599,0.0896,306.670,95.753,94.626,,,,,,,,,,,,
CalCOFI,2101RL,034,,2101_034d,23-Jan-2021 12:34:25,23-Jan-2021 04:34:25,33.88738,-118.48870,086.7 033.0,086.7,033.0,30.000,30.218,,14.8233,,14.8177,,14.8205,33.5421,,33.5479,33.5365,,33.5385,33.5432,5.5368,,5.7947,5.8329,5.4724,,5.8102,5.8381,5.8355,241.269,252.8206,254.3158,238.465,268.7473,254.5449,254.4304,0.1389,,0.8900,1.4786, ,, , ,24.8872,,24.8842,,0.8999,79.8531,,,,1.8474E+00,,1.0000E-12,,14.8188,14.8132,0.0927,306.412,96.057,94.926,,,,,,,,,,,,
CalCOFI,2101RL,034,,2101_034d,23-Jan-2021 12:34:27,23-Jan-2021 04:34:27,33.88738,-118.48868,086.7 033.0,086.7,033.0,31.000,31.225,,14.8251,,14.8317,,14.8284,33.5417,,33.5475,33.5402,,33.5422,33.5449,5.4636,,5.7181,5.7636,5.4218,,5.7565,5.7896,5.7766,238.080,249.4823,251.2943,236.261,265.2011,252.4312,251.8628,0.1391,,0.8916,1.4814, ,, , ,24.8866,,24.8841,,0.8929,79.9937,,,,1.8474E+00,,1.0000E-12,,14.8205,14.8271,0.0958,306.506,94.791,94.077,,,,,,,,,,,,
CalCOFI,2101RL,034,,2101_034d,23-Jan-2021 12:34:29,23-Jan-2021 04:34:29,33.88737,-118.48868,086.7 033.0,086.7,033.0,32.000,32.232,,14.7868,,14.7802,,14.7835,33.5335,,33.5393,33.5290,,33.5310,33.5352,5.3915,,5.6426,5.6952,5.3459,,5.6759,5.7168,5.7060,234.937,246.1923,248.3164,232.950,261.7060,249.2559,248.7862,0.1377,,0.8801,1.4614, ,, , ,24.8886,,24.8866,,0.8878,80.0956,,,,1.8474E+00,,1.0000E-12,,14.7821,14.7755,0.0989,306.347,93.463,92.658,,,,,,,,,,,,
CalCOFI,2101RL,034,,2101_034d,23-Jan-2021 12:34:30,23-Jan-2021 04:34:30,33.88736,-118.48868,086.7 033.0,086.7,033.0,33.000,33.239,,14.7173,,14.7168,,14.7171,33.5218,,33.5276,33.5188,,33.5208,33.5242,5.4001,,5.6516,5.7034,5.3442,,5.6741,5.7152,5.7093,235.312,246.5848,248.6717,232.877,262.1230,249.1859,248.9288,0.1291,,0.8097,1.3380, ,, , ,24.8945,,24.8923,,0.8846,80.1590,,,,1.8474E+00,,1.0000E-12,,14.7125,14.7120,0.1020,305.807,93.476,92.506,,,,,,,,,,,,
CalCOFI,2101RL,034,,2101_034d,23-Jan-2021 12:34:32,23-Jan-2021 04:34:32,33.88736,-118.48868,086.7 033.0,086.7,033.0,34.000,34.247,,14.6954,,14.6951,,14.6953,33.5204,,33.5262,33.5170,,33.5190,33.5226,5.3788,,5.6294,5.6832,5.3279,,5.6568,5.6995,5.6914,234.381,245.6102,247.7896,232.162,261.0877,248.5002,248.1449,0.1223,,0.7539,1.2405, ,, , ,24.8981,,24.8956,,0.8762,80.3277,,,,1.8474E+00,,1.0000E-12,,14.6904,14.6900,0.1050,305.490,93.065,92.181,,,,,,,,,,,,
CalCOFI,2101RL,034,,2101_034d,23-Jan-2021 12:34:35,23-Jan-2021 04:34:35,33.88736,-118.48868,086.7 033.0,086.7,033.0,35.000,35.254,,14.6731,,14.6715,,14.6723,33.5206,,33.5264,33.5175,,33.5195,33.5230,5.3350,,5.5835,5.6417,5.2790,,5.6048,5.6526,5.6472,232.471,243.6108,245.9799,230.033,258.9638,246.4584,246.2192,0.1129,,0.6769,1.1057, ,, , ,24.9031,,24.9010,,0.8635,80.5827,,,,1.8474E+00,,1.0000E-12,,14.6680,14.6663,0.1081,305.043,92.266,91.293,,,,,,,,,,,,
CalCOFI,2101RL,034,,2101_034d,23-Jan-2021 12:34:36,23-Jan-2021 04:34:36,33.88734,-118.48868,086.7 033.0,086.7,033.0,36.000,36.262,,14.6288,,14.6283,,14.6286,33.5229,,33.5287,33.5199,,33.5219,33.5253,5.3112,,5.5586,5.6191,5.2692,,5.5944,5.6432,5.6312,231.434,242.5253,244.9974,229.605,257.8106,246.0479,245.5227,0.1028,,0.5942,0.9608, ,, , ,24.9144,,24.9122,,0.8491,80.8746,,,,1.8474E+00,,1.0000E-12,,14.6235,14.6229,0.1112,304.001,91.775,91.046,,,,,,,,,,,,
CalCOFI,2101RL,034,,2101_034d,23-Jan-2021 12:34:38,23-Jan-2021 04:34:38,33.88734,-118.48868,086.7 033.0,086.7,033.0,37.000,37.269,,14.5872,,14.5859,,14.5866,33.5316,,33.5374,33.5289,,33.5309,33.5342,5.3011,,5.5480,5.6096,5.2553,,5.5797,5.6299,5.6198,230.988,242.0584,244.5748,228.992,257.3147,245.4601,245.0175,0.0905,,0.4934,0.7844, ,, , ,24.9300,,24.9282,,0.8271,81.3204,,,,1.8474E+00,,1.0000E-12,,14.5818,14.5804,0.1142,302.540,91.528,90.733,,,,,,,,,,,,
CalCOFI,2101RL,034,,2101_034d,23-Jan-2021 12:34:40,23-Jan-2021 04:34:40,33.88732,-118.48868,086.7 033.0,086.7,033.0,38.000,38.276,,14.5538,,14.5536,,14.5537,33.5390,,33.5448,33.5359,,33.5379,33.5414,5.3075,,5.5547,5.6156,5.2491,,5.5731,5.6239,5.6198,231.263,242.3463,244.8353,228.720,257.6205,245.1992,245.0173,0.0801,,0.4081,0.6353, ,, , ,24.9429,,24.9405,,0.8045,81.7811,,,,1.8474E+00,,1.0000E-12,,14.5483,14.5480,0.1173,301.342,91.581,90.571,,,,,,,,,,,,
CalCOFI,2101RL,034,,2101_034d,23-Jan-2021 12:34:42,23-Jan-2021 04:34:42,33.88731,-118.48868,086.7 033.0,086.7,033.0,39.000,39.284,,14.5420,,14.5420,,14.5420,33.5412,,33.5470,33.5381,,33.5401,33.5436,5.3110,,5.5584,5.6189,5.2269,,5.5495,5.6026,5.6108,231.416,242.5065,244.9803,227.752,257.7906,244.2709,244.6256,0.0766,,0.3795,0.5851, ,, , ,24.9471,,24.9447,,0.7906,82.0669,,,,1.8474E+00,,1.0000E-12,,14.5363,14.5363,0.1203,300.967,91.621,90.168,,,,,,,,,,,,
CalCOFI,2101RL,034,,2101_034d,23-Jan-2021 12:34:44,23-Jan-2021 04:34:44,33.88730,-118.48868,086.7 033.0,086.7,033.0,40.000,40.291,,14.5263,,14.5253,,14.5258,33.5421,,33.5479,33.5387,,33.5407,33.5443,5.2765,,5.5223,5.5862,5.2102,,5.5318,5.5866,5.5864,229.914,240.9342,243.5572,227.025,256.1204,243.5737,243.5655,0.0727,,0.3475,0.5291, ,, , ,24.9512,,24.9488,,0.7865,82.1508,,,,1.8474E+00,,1.0000E-12,,14.5204,14.5195,0.1233,300.609,90.999,89.851,,,,,,,,,,,,
CalCOFI,2101RL,034,,2101_034d,23-Jan-2021 12:34:46,23-Jan-2021 04:34:46,33.88730,-118.48868,086.7 033.0,086.7,033.0,41.000,41.298,,14.4935,,14.4903,,14.4919,33.5409,,33.5467,33.5374,,33.5394,33.5431,5.2070,,5.4495,5.5204,5.1885,,5.5087,5.5658,5.5431,226.881,237.7592,240.6835,226.078,252.7476,242.6655,241.6745,0.0722,,0.3434,0.5220, ,, , ,24.9573,,24.9552,,0.7770,82.3443,,,,1.8474E+00,,1.0000E-12,,14.4875,14.4843,0.1263,300.056,89.739,89.413,,,,,,,,,,,,
CalCOFI,2101RL,034,,2101_034d,23-Jan-2021 12:34:48,23-Jan-2021 04:34:48,33.88730,-118.48868,086.7 033.0,086.7,033.0,42.000,42.306,,14.4615,,14.4597,,14.4606,33.5389,,33.5447,33.5357,,33.5377,33.5412,5.1462,,5.3859,5.4628,5.1006,,5.4153,5.4815,5.4722,224.231,234.9852,238.1727,222.247,249.8008,238.9915,238.5821,0.0698,,0.3237,0.4875, ,, , ,24.9625,,24.9604,,0.7760,82.3656,,,,1.8474E+00,,1.0000E-12,,14.4554,14.4536,0.1294,299.586,88.633,87.844,,,,,,,,,,,,
CalCOFI,2101RL,034,,2101_034d,23-Jan-2021 12:34:50,23-Jan-2021 04:34:50,33.88728,-118.48868,086.7 033.0,086.7,033.0,43.000,43.313,,14.4018,,14.3990,,14.4004,33.5354,,33.5412,33.5323,,33.5343,33.5378,5.0605,,5.2962,5.3815,5.0288,,5.3391,5.4126,5.3971,220.494,231.0733,234.6319,219.113,245.6452,235.9859,235.3089,0.0695,,0.3213,0.4832, ,, , ,24.9724,,24.9707,,0.7758,82.3687,,,,1.8474E+00,,1.0000E-12,,14.3956,14.3928,0.1324,298.665,87.050,86.499,,,,,,,,,,,,
CalCOFI,2101RL,034,,2101_034d,23-Jan-2021 12:34:52,23-Jan-2021 04:34:52,33.88728,-118.48867,086.7 033.0,086.7,033.0,44.000,44.321,,14.3250,,14.3216,,14.3233,33.5328,,33.5386,33.5298,,33.5318,33.5352,4.8479,,5.0737,5.1801,4.8619,,5.1618,5.2525,5.2163,211.230,221.3758,225.8545,211.840,235.3435,229.0110,227.4328,0.0670,,0.3008,0.4474, ,, , ,24.9867,,24.9851,,0.7754,82.3771,,,,1.8474E+00,,1.0000E-12,,14.3186,14.3152,0.1354,297.329,83.263,83.497,,,,,,,,,,,,
CalCOFI,2101RL,034,,2101_034d,23-Jan-2021 12:34:53,23-Jan-2021 04:34:53,33.88728,-118.48866,086.7 033.0,086.7,033.0,45.000,45.328,,14.2171,,14.2087,,14.2129,33.5302,,33.5360,33.5275,,33.5295,33.5328,4.8445,,5.0702,5.1769,4.7750,,5.0695,5.1692,5.1731,211.078,221.2167,225.7104,208.047,235.1744,225.3734,225.5419,0.0653,,0.2869,0.4230, ,, , ,25.0074,,25.0071,,0.7753,82.3792,,,,1.8474E+00,,1.0000E-12,,14.2106,14.2022,0.1384,295.384,83.023,81.815,,,,,,,,,,,,
CalCOFI,2101RL,034,,2101_034d,23-Jan-2021 12:34:56,23-Jan-2021 04:34:56,33.88728,-118.48865,086.7 033.0,086.7,033.0,46.000,46.335,,14.1047,,14.0773,,14.0910,33.5259,,33.5317,33.5204,,33.5224,33.5271,4.7815,,5.0042,5.1172,4.7426,,5.0351,5.1381,5.1277,208.329,218.3390,223.1058,206.631,232.1175,224.0154,223.5606,0.0636,,0.2729,0.3986, ,, , ,25.0276,,25.0291,,0.7789,82.3071,,,,1.8474E+00,,1.0000E-12,,14.0981,14.0707,0.1413,293.477,81.755,81.041,,,,,,,,,,,,
CalCOFI,2101RL,034,,2101_034d,23-Jan-2021 12:34:58,23-Jan-2021 04:34:58,33.88728,-118.48864,086.7 033.0,086.7,033.0,47.000,47.343,,13.9846,,13.9840,,13.9843,33.5193,,33.5251,33.5156,,33.5176,33.5214,4.6873,,4.9056,5.0279,4.6427,,4.9290,5.0422,5.0351,204.219,214.0366,219.2117,202.279,227.5471,219.8418,219.5268,0.0622,,0.2615,0.3785, ,, , ,25.0475,,25.0448,,0.7754,82.3784,,,,1.8474E+00,,1.0000E-12,,13.9779,13.9772,0.1443,291.602,79.945,79.183,,,,,,,,,,,,
CalCOFI,2101RL,034,,2101_034d,23-Jan-2021 12:35:00,23-Jan-2021 04:35:00,33.88728,-118.48864,086.7 033.0,086.7,033.0,48.000,48.350,,13.9406,,13.9390,,13.9398,33.5192,,33.5250,33.5149,,33.5169,33.5210,4.6774,,4.8953,5.0185,4.6145,,4.8991,5.0152,5.0169,203.785,213.5823,218.8005,201.045,227.0645,218.6583,218.7294,0.0610,,0.2516,0.3613, ,, , ,25.0566,,25.0537,,0.7769,82.3472,,,,1.8474E+00,,1.0000E-12,,13.9337,13.9321,0.1472,290.766,79.705,78.629,,,,,,,,,,,,
CalCOFI,2101RL,034,,2101_034d,23-Jan-2021 12:35:03,23-Jan-2021 04:35:03,33.88728,-118.48862,086.7 033.0,086.7,033.0,49.000,49.358,,13.8967,,13.8593,,13.8780,33.5164,,33.5222,33.5082,,33.5102,33.5162,4.4899,,4.6990,4.8408,4.4873,,4.7640,4.8932,4.8670,195.615,205.0300,211.0596,195.504,217.9793,213.3444,212.2020,0.0621,,0.2607,0.3771, ,, , ,25.0635,,25.0649,,0.7791,82.3016,,,,1.8474E+00,,1.0000E-12,,13.8897,13.8524,0.1501,290.129,76.441,76.335,,,,,,,,,,,,
CalCOFI,2101RL,034,,2101_034d,23-Jan-2021 12:35:05,23-Jan-2021 04:35:05,33.88728,-118.48862,086.7 033.0,086.7,033.0,50.000,50.365,,13.7955,,13.7952,,13.7954,33.5127,,33.5185,33.5101,,33.5121,33.5153,4.4627,,4.6706,4.8150,4.4089,,4.6807,4.8180,4.8165,194.428,203.7874,209.9349,192.082,216.6594,210.0626,209.9988,0.0616,,0.2566,0.3699, ,, , ,25.0816,,25.0796,,0.7831,82.2205,,,,1.8474E+00,,1.0000E-12,,13.7884,13.7882,0.1531,288.435,75.820,74.904,50,,33.4955,4.814,209.89,0.372,0.224,,,,,
CalCOFI,2101RL,034,,2101_034d,23-Jan-2021 12:35:07,23-Jan-2021 04:35:07,33.88728,-118.48862,086.7 033.0,086.7,033.0,51.000,51.372,,13.7301,,13.7090,,13.7196,33.5225,,33.5283,33.5202,,33.5222,33.5253,4.4122,,4.6177,4.7672,4.3448,,4.6126,4.7565,4.7619,192.222,201.4782,207.8448,189.288,214.2063,207.3831,207.6140,0.0635,,0.2721,0.3972, ,, , ,25.1026,,25.1052,,0.7868,82.1437,,,,1.8474E+00,,1.0000E-12,,13.7229,13.7018,0.1560,286.457,74.867,73.691,,,,,,,,,,,,